| time (UTC) | temp F | wind direction | speed MPH | gust MPH | rain 1hr in | rain 24hr in | rain mn in | humidity % | barometer mb |
| 20260506023632 | 66 | 87 | 8.0 | 13.0 | 0.00 | 0.00 | 0.00 | 60 | 1031.9 |
| 20260506023129 | 66 | 103 | 8.0 | 16.0 | 0.00 | 0.00 | 0.00 | 60 | 1032.0 |
| 20260506022627 | 66 | 111 | 13.0 | 14.0 | 0.00 | 0.00 | 0.00 | 61 | 1032.0 |
| 20260506022124 | 65 | 81 | 9.0 | 14.0 | 0.00 | 0.00 | 0.00 | 61 | 1032.0 |
| 20260506021621 | 65 | 72 | 8.0 | 15.0 | 0.00 | 0.00 | 0.00 | 62 | 1032.1 |
| 20260506021119 | 65 | 85 | 11.0 | 14.0 | 0.00 | 0.00 | 0.00 | 62 | 1032.0 |
| 20260506020616 | 64 | 77 | 10.0 | 18.0 | 0.00 | 0.00 | 0.00 | 63 | 1032.2 |
| 20260506020113 | 64 | 78 | 11.0 | 15.0 | 0.00 | 0.00 | 0.00 | 63 | 1032.0 |
| 20260506015611 | 64 | 84 | 13.0 | 20.0 | 0.00 | 0.00 | 0.00 | 63 | 1032.2 |
| 20260506015107 | 64 | 80 | 8.0 | 15.0 | 0.00 | 0.00 | 0.00 | 65 | 1032.1 |
| 20260506014605 | 63 | 87 | 14.0 | 18.0 | 0.00 | 0.00 | 0.00 | 65 | 1032.1 |
| 20260506014100 | 64 | 67 | 9.0 | 19.0 | 0.00 | 0.00 | 0.00 | 64 | 1032.1 |
| 20260506013559 | 63 | 66 | 11.0 | 16.0 | 0.00 | 0.00 | 0.00 | 64 | 1032.0 |
| 20260506013055 | 63 | 66 | 11.0 | 16.0 | 0.00 | 0.00 | 0.00 | 65 | 1032.0 |
| 20260506012551 | 62 | 64 | 11.0 | 18.0 | 0.00 | 0.00 | 0.00 | 66 | 1032.0 |
| 20260506012048 | 63 | 81 | 13.0 | 16.0 | 0.00 | 0.00 | 0.00 | 66 | 1031.9 |
| 20260506011546 | 63 | 83 | 9.0 | 14.0 | 0.00 | 0.00 | 0.00 | 67 | 1032.3 |
| 20260506011042 | 62 | 87 | 8.0 | 14.0 | 0.00 | 0.00 | 0.00 | 67 | 1032.0 |
| 20260506010542 | 62 | 88 | 8.0 | 13.0 | 0.00 | 0.00 | 0.00 | 68 | 1032.0 |
| 20260506010038 | 62 | 84 | 17.0 | 20.0 | 0.00 | 0.00 | 0.00 | 68 | 1032.0 |
| 20260506005535 | 61 | 103 | 7.0 | 11.0 | 0.00 | 0.00 | 0.00 | 70 | 1032.0 |
| 20260506005031 | 61 | 81 | 9.0 | 15.0 | 0.00 | 0.00 | 0.00 | 69 | 1031.7 |
| 20260506004528 | 61 | 97 | 11.0 | 13.0 | 0.00 | 0.00 | 0.00 | 70 | 1031.8 |
| 20260506004025 | 60 | 96 | 6.0 | 13.0 | 0.00 | 0.00 | 0.00 | 70 | 1031.8 |
| 20260506003521 | 60 | 126 | 5.0 | 10.0 | 0.00 | 0.00 | 0.00 | 70 | 1031.8 |
| 20260506003017 | 60 | 99 | 6.0 | 13.0 | 0.00 | 0.00 | 0.00 | 71 | 1031.7 |
| 20260506002514 | 59 | 96 | 8.0 | 11.0 | 0.00 | 0.00 | 0.00 | 71 | 1031.8 |
| 20260506002009 | 59 | 93 | 8.0 | 13.0 | 0.00 | 0.00 | 0.00 | 71 | 1031.6 |
| 20260506001506 | 59 | 107 | 7.0 | 11.0 | 0.00 | 0.00 | 0.00 | 71 | 1031.9 |
| 20260506001003 | 59 | 97 | 6.0 | 10.0 | 0.00 | 0.00 | 0.00 | 72 | 1031.7 |
| 20260506000500 | 59 | 99 | 8.0 | 11.0 | 0.00 | 0.00 | 0.00 | 72 | 1031.7 |
| 20260505235957 | 58 | 93 | 9.0 | 11.0 | 0.00 | 0.00 | 0.00 | 73 | 1031.4 |
| 20260505235456 | 58 | 76 | 9.0 | 14.0 | 0.00 | 0.00 | 0.00 | 73 | 1031.4 |
| 20260505234952 | 58 | 98 | 7.0 | 11.0 | 0.00 | 0.00 | 0.00 | 74 | 1031.3 |
| 20260505234450 | 57 | 73 | 8.0 | 13.0 | 0.00 | 0.00 | 0.00 | 74 | 1031.4 |
| 20260505233946 | 57 | 91 | 6.0 | 15.0 | 0.00 | 0.00 | 0.00 | 75 | 1031.2 |
| 20260505233444 | 57 | 85 | 8.0 | 13.0 | 0.00 | 0.00 | 0.00 | 75 | 1030.9 |
| 20260505232941 | 57 | 94 | 5.0 | 11.0 | 0.00 | 0.00 | 0.00 | 76 | 1031.1 |
| 20260505232439 | 56 | 89 | 8.0 | 14.0 | 0.00 | 0.00 | 0.00 | 76 | 1030.9 |
| 20260505231936 | 56 | 82 | 10.0 | 13.0 | 0.00 | 0.00 | 0.00 | 76 | 1031.0 |
| 20260505231433 | 56 | 95 | 8.0 | 13.0 | 0.00 | 0.00 | 0.00 | 77 | 1030.9 |
| 20260505230931 | 56 | 86 | 5.0 | 13.0 | 0.00 | 0.00 | 0.00 | 77 | 1030.7 |
| 20260505230429 | 55 | 113 | 10.0 | 13.0 | 0.00 | 0.00 | 0.00 | 77 | 1030.8 |
| 20260505225925 | 56 | 96 | 8.0 | 13.0 | 0.00 | 0.00 | 0.00 | 77 | 1030.7 |
| 20260505225422 | 56 | 98 | 9.0 | 14.0 | 0.00 | 0.00 | 0.00 | 77 | 1030.6 |
| 20260505224917 | 56 | 91 | 8.0 | 12.0 | 0.00 | 0.00 | 0.00 | 77 | 1030.5 |
| 20260505224415 | 56 | 88 | 7.0 | 15.0 | 0.00 | 0.00 | 0.00 | 77 | 1030.5 |
| 20260505223912 | 56 | 97 | 9.0 | 14.0 | 0.00 | 0.00 | 0.00 | 77 | 1030.5 |
| 20260505223409 | 55 | 104 | 5.0 | 15.0 | 0.00 | 0.00 | 0.00 | 78 | 1030.6 |
| 20260505222905 | 55 | 108 | 11.0 | 13.0 | 0.00 | 0.00 | 0.00 | 78 | 1030.5 |
| 20260505222401 | 55 | 100 | 10.0 | 15.0 | 0.00 | 0.00 | 0.00 | 78 | 1030.4 |
| 20260505221858 | 55 | 99 | 9.0 | 13.0 | 0.00 | 0.00 | 0.00 | 79 | 1030.5 |
| 20260505221355 | 55 | 112 | 10.0 | 11.0 | 0.00 | 0.00 | 0.00 | 79 | 1030.4 |
| 20260505220852 | 55 | 114 | 6.0 | 11.0 | 0.00 | 0.00 | 0.00 | 78 | 1030.2 |
| 20260505220349 | 55 | 124 | 7.0 | 13.0 | 0.00 | 0.00 | 0.00 | 78 | 1030.3 |
| 20260505215847 | 55 | 125 | 9.0 | 11.0 | 0.00 | 0.00 | 0.00 | 77 | 1030.2 |
| 20260505215345 | 56 | 117 | 7.0 | 10.0 | 0.00 | 0.00 | 0.00 | 77 | 1030.3 |
| 20260505214842 | 56 | 100 | 7.0 | 14.0 | 0.00 | 0.00 | 0.00 | 76 | 1030.2 |
| 20260505214340 | 56 | 105 | 8.0 | 12.0 | 0.00 | 0.00 | 0.00 | 77 | 1030.3 |
| 20260505213837 | 56 | 107 | 7.0 | 14.0 | 0.00 | 0.00 | 0.00 | 77 | 1030.2 |
| 20260505213335 | 56 | 101 | 10.0 | 14.0 | 0.00 | 0.00 | 0.00 | 77 | 1029.9 |
| 20260505212830 | 56 | 100 | 8.0 | 13.0 | 0.00 | 0.00 | 0.00 | 76 | 1030.0 |
| 20260505212328 | 56 | 124 | 10.0 | 15.0 | 0.00 | 0.00 | 0.00 | 77 | 1029.9 |
| 20260505211823 | 56 | 111 | 10.0 | 13.0 | 0.00 | 0.00 | 0.00 | 76 | 1029.9 |
| 20260505211322 | 56 | 91 | 10.0 | 13.0 | 0.00 | 0.00 | 0.00 | 77 | 1029.8 |
| 20260505210818 | 56 | 102 | 7.0 | 12.0 | 0.00 | 0.00 | 0.00 | 76 | 1030.0 |
| 20260505210315 | 56 | 89 | 7.0 | 11.0 | 0.00 | 0.00 | 0.00 | 76 | 1029.9 |
| 20260505205812 | 56 | 112 | 10.0 | 15.0 | 0.00 | 0.00 | 0.00 | 76 | 1029.8 |
| 20260505205310 | 56 | 103 | 9.0 | 14.0 | 0.00 | 0.00 | 0.00 | 76 | 1030.0 |
| 20260505204806 | 56 | 84 | 7.0 | 14.0 | 0.00 | 0.00 | 0.00 | 76 | 1029.9 |
| 20260505204304 | 56 | 91 | 8.0 | 15.0 | 0.00 | 0.00 | 0.00 | 76 | 1029.9 |
| 20260505203801 | 56 | 97 | 9.0 | 15.0 | 0.00 | 0.00 | 0.00 | 76 | 1029.8 |
| 20260505203258 | 56 | 92 | 7.0 | 14.0 | 0.00 | 0.00 | 0.00 | 76 | 1029.7 |
| 20260505202754 | 56 | 89 | 7.0 | 13.0 | 0.00 | 0.00 | 0.00 | 76 | 1029.8 |
| 20260505202250 | 56 | 87 | 8.0 | 12.0 | 0.00 | 0.00 | 0.00 | 76 | 1029.7 |
| 20260505201747 | 56 | 84 | 8.0 | 15.0 | 0.00 | 0.00 | 0.00 | 76 | 1029.4 |
| 20260505201244 | 56 | 88 | 9.0 | 14.0 | 0.00 | 0.00 | 0.00 | 75 | 1029.6 |
| 20260505200743 | 56 | 83 | 11.0 | 12.0 | 0.00 | 0.00 | 0.00 | 76 | 1029.7 |
| 20260505200240 | 56 | 89 | 7.0 | 13.0 | 0.00 | 0.00 | 0.00 | 76 | 1029.8 |
| 20260505195735 | 56 | 101 | 7.0 | 12.0 | 0.00 | 0.00 | 0.00 | 76 | 1029.6 |
| 20260505195233 | 55 | 114 | 8.0 | 10.0 | 0.00 | 0.00 | 0.00 | 76 | 1029.8 |
| 20260505194730 | 55 | 102 | 5.0 | 10.0 | 0.00 | 0.00 | 0.00 | 75 | 1029.7 |
| 20260505194226 | 55 | 100 | 7.0 | 8.0 | 0.00 | 0.00 | 0.00 | 75 | 1029.7 |
| 20260505193722 | 55 | 102 | 3.0 | 7.0 | 0.00 | 0.00 | 0.00 | 75 | 1029.7 |
| 20260505193219 | 55 | 98 | 4.0 | 8.0 | 0.00 | 0.00 | 0.00 | 75 | 1029.7 |
| 20260505192718 | 55 | 119 | 8.0 | 10.0 | 0.00 | 0.00 | 0.00 | 75 | 1029.7 |
| 20260505192215 | 55 | 93 | 6.0 | 10.0 | 0.00 | 0.00 | 0.00 | 75 | 1029.7 |
| 20260505191713 | 55 | 94 | 6.0 | 10.0 | 0.00 | 0.00 | 0.00 | 75 | 1029.5 |
| 20260505191211 | 55 | 110 | 7.0 | 8.0 | 0.00 | 0.00 | 0.00 | 74 | 1029.6 |
| 20260505190707 | 55 | 123 | 7.0 | 8.0 | 0.00 | 0.00 | 0.00 | 74 | 1029.8 |
| 20260505190207 | 55 | 109 | 5.0 | 10.0 | 0.00 | 0.00 | 0.00 | 74 | 1029.8 |
| 20260505185704 | 55 | 109 | 5.0 | 7.0 | 0.00 | 0.00 | 0.00 | 73 | 1029.8 |
| 20260505185200 | 55 | 123 | 8.0 | 10.0 | 0.00 | 0.00 | 0.00 | 73 | 1029.6 |
| 20260505184656 | 55 | 111 | 8.0 | 8.0 | 0.00 | 0.00 | 0.00 | 73 | 1029.7 |
| 20260505184154 | 55 | 125 | 7.0 | 9.0 | 0.00 | 0.00 | 0.00 | 73 | 1029.6 |
| 20260505183651 | 55 | 108 | 5.0 | 8.0 | 0.00 | 0.00 | 0.00 | 72 | 1029.5 |
| 20260505183148 | 56 | 106 | 9.0 | 11.0 | 0.00 | 0.00 | 0.00 | 72 | 1029.5 |
| 20260505182645 | 55 | 118 | 8.0 | 10.0 | 0.00 | 0.00 | 0.00 | 72 | 1029.8 |
| 20260505182142 | 55 | 117 | 7.0 | 9.0 | 0.00 | 0.00 | 0.00 | 72 | 1029.8 |
| 20260505181638 | 55 | 119 | 5.0 | 9.0 | 0.00 | 0.00 | 0.00 | 72 | 1029.7 |
| 20260505181136 | 55 | 132 | 7.0 | 9.0 | 0.00 | 0.00 | 0.00 | 72 | 1029.6 |
| 20260505180631 | 55 | 118 | 8.0 | 9.0 | 0.00 | 0.00 | 0.00 | 72 | 1029.7 |
| 20260505180129 | 56 | 115 | 6.0 | 9.0 | 0.00 | 0.00 | 0.00 | 71 | 1029.7 |
| 20260505175625 | 56 | 126 | 6.0 | 7.0 | 0.00 | 0.00 | 0.00 | 71 | 1029.6 |
| 20260505175121 | 56 | 116 | 7.0 | 10.0 | 0.00 | 0.00 | 0.00 | 71 | 1029.5 |
| 20260505174618 | 56 | 115 | 8.0 | 9.0 | 0.00 | 0.00 | 0.00 | 70 | 1029.6 |
| 20260505174114 | 57 | 104 | 5.0 | 9.0 | 0.00 | 0.00 | 0.00 | 70 | 1029.5 |
| 20260505173611 | 57 | 114 | 8.0 | 10.0 | 0.00 | 0.00 | 0.00 | 69 | 1029.5 |
| 20260505173108 | 57 | 117 | 8.0 | 11.0 | 0.00 | 0.00 | 0.00 | 69 | 1029.2 |
| 20260505172605 | 57 | 127 | 9.0 | 9.0 | 0.00 | 0.00 | 0.00 | 70 | 1029.3 |
| 20260505172102 | 57 | 129 | 9.0 | 10.0 | 0.00 | 0.00 | 0.00 | 70 | 1029.4 |
| 20260505171556 | 57 | 128 | 6.0 | 8.0 | 0.00 | 0.00 | 0.00 | 70 | 1029.4 |
| 20260505171054 | 57 | 116 | 6.0 | 8.0 | 0.00 | 0.00 | 0.00 | 70 | 1029.3 |
| 20260505170550 | 57 | 110 | 5.0 | 10.0 | 0.00 | 0.00 | 0.00 | 70 | 1029.3 |
| 20260505170047 | 57 | 113 | 6.0 | 10.0 | 0.00 | 0.00 | 0.00 | 69 | 1029.3 |
| 20260505165542 | 57 | 118 | 6.0 | 9.0 | 0.00 | 0.00 | 0.00 | 69 | 1029.3 |
| 20260505165038 | 57 | 116 | 9.0 | 12.0 | 0.00 | 0.00 | 0.00 | 69 | 1029.5 |
| 20260505164534 | 57 | 122 | 5.0 | 10.0 | 0.00 | 0.00 | 0.00 | 69 | 1029.6 |
| 20260505164032 | 57 | 130 | 5.0 | 8.0 | 0.00 | 0.00 | 0.00 | 69 | 1029.4 |
| 20260505163531 | 57 | 127 | 5.0 | 10.0 | 0.00 | 0.00 | 0.00 | 69 | 1029.3 |
| 20260505163027 | 57 | 123 | 8.0 | 9.0 | 0.00 | 0.00 | 0.00 | 70 | 1029.3 |
| 20260505162520 | 57 | 137 | 6.0 | 9.0 | 0.00 | 0.00 | 0.00 | 70 | 1029.2 |
| 20260505162017 | 57 | 122 | 7.0 | 9.0 | 0.00 | 0.00 | 0.00 | 70 | 1029.1 |
| 20260505161514 | 57 | 129 | 5.0 | 8.0 | 0.00 | 0.00 | 0.00 | 70 | 1029.3 |
| 20260505161011 | 57 | 122 | 4.0 | 7.0 | 0.00 | 0.00 | 0.00 | 70 | 1029.1 |
| 20260505160509 | 57 | 134 | 6.0 | 9.0 | 0.00 | 0.00 | 0.00 | 71 | 1029.2 |
| 20260505152945 | 57 | 138 | 6.0 | 8.0 | 0.00 | 0.00 | 0.00 | 72 | 1029.1 |
| 20260505152443 | 57 | 140 | 7.0 | 9.0 | 0.00 | 0.00 | 0.00 | 71 | 1029.2 |
| 20260505151943 | 58 | 138 | 6.0 | 9.0 | 0.00 | 0.00 | 0.00 | 70 | 1029.0 |
| 20260505151439 | 59 | 144 | 7.0 | 9.0 | 0.00 | 0.00 | 0.00 | 70 | 1029.0 |
| 20260505150937 | 58 | 131 | 5.0 | 9.0 | 0.00 | 0.00 | 0.00 | 70 | 1029.1 |
| 20260505150433 | 58 | 133 | 6.0 | 9.0 | 0.00 | 0.00 | 0.00 | 72 | 1028.8 |
| 20260505140403 | 57 | 128 | 5.0 | 7.0 | 0.00 | 0.00 | 0.00 | 78 | 1029.2 |
| 20260505124817 | 58 | 135 | 3.0 | 5.0 | 0.00 | 0.00 | 0.00 | 78 | 1029.0 |
| 20260505124314 | 58 | 125 | 3.0 | 4.0 | 0.00 | 0.00 | 0.00 | 78 | 1029.0 |
| 20260505123810 | 58 | 133 | 2.0 | 4.0 | 0.00 | 0.00 | 0.00 | 78 | 1029.0 |
| 20260505123307 | 58 | 143 | 3.0 | 4.0 | 0.00 | 0.00 | 0.00 | 77 | 1029.1 |
| 20260505122802 | 58 | 134 | 4.0 | 5.0 | 0.00 | 0.00 | 0.00 | 78 | 1028.9 |
| 20260505122300 | 58 | 145 | 4.0 | 6.0 | 0.00 | 0.00 | 0.00 | 78 | 1029.0 |
| 20260505121756 | 58 | 148 | 5.0 | 5.0 | 0.00 | 0.00 | 0.00 | 78 | 1028.8 |
| 20260505121253 | 58 | 143 | 4.0 | 4.0 | 0.00 | 0.00 | 0.00 | 77 | 1028.7 |
| 20260505120750 | 58 | 148 | 3.0 | 4.0 | 0.00 | 0.00 | 0.00 | 77 | 1028.9 |
| 20260505120246 | 59 | 159 | 2.0 | 4.0 | 0.00 | 0.00 | 0.00 | 76 | 1028.7 |
| 20260505115745 | 59 | 151 | 4.0 | 4.0 | 0.00 | 0.00 | 0.00 | 76 | 1028.7 |
| 20260505115242 | 59 | 154 | 2.0 | 4.0 | 0.00 | 0.00 | 0.00 | 75 | 1028.8 |
| 20260505114739 | 59 | 157 | 2.0 | 4.0 | 0.00 | 0.00 | 0.00 | 75 | 1028.8 |
| 20260505114235 | 59 | 152 | 3.0 | 5.0 | 0.00 | 0.00 | 0.00 | 75 | 1028.6 |
| 20260505113732 | 59 | 146 | 3.0 | 5.0 | 0.00 | 0.00 | 0.00 | 74 | 1028.6 |
| 20260505113229 | 59 | 150 | 5.0 | 5.0 | 0.00 | 0.00 | 0.00 | 74 | 1028.5 |
| 20260505112725 | 59 | 145 | 4.0 | 5.0 | 0.00 | 0.00 | 0.00 | 74 | 1028.6 |
| 20260505112223 | 59 | 149 | 3.0 | 5.0 | 0.00 | 0.00 | 0.00 | 73 | 1028.6 |
| 20260505111723 | 60 | 150 | 3.0 | 5.0 | 0.00 | 0.00 | 0.00 | 73 | 1028.6 |
| 20260505111219 | 60 | 154 | 2.0 | 4.0 | 0.00 | 0.00 | 0.00 | 73 | 1028.6 |
| 20260505110715 | 60 | 159 | 3.0 | 5.0 | 0.00 | 0.00 | 0.00 | 72 | 1028.6 |
| 20260505110213 | 60 | 143 | 4.0 | 6.0 | 0.00 | 0.00 | 0.00 | 72 | 1028.4 |
| 20260505102148 | 61 | 146 | 3.0 | 3.0 | 0.00 | 0.00 | 0.00 | 73 | 1028.1 |
| 20260505101647 | 61 | 141 | 2.0 | 2.0 | 0.00 | 0.00 | 0.00 | 73 | 1028.1 |
| 20260505101143 | 62 | 160 | 1.0 | 2.0 | 0.00 | 0.00 | 0.00 | 72 | 1028.1 |
| 20260505100639 | 62 | 193 | 3.0 | 3.0 | 0.00 | 0.00 | 0.00 | 72 | 1028.0 |
| 20260505100136 | 62 | 202 | 2.0 | 4.0 | 0.00 | 0.00 | 0.00 | 72 | 1028.0 |
| 20260505095632 | 63 | 197 | 4.0 | 5.0 | 0.00 | 0.00 | 0.00 | 71 | 1027.9 |
| 20260505095129 | 63 | 204 | 4.0 | 5.0 | 0.00 | 0.00 | 0.00 | 71 | 1027.9 |
| 20260505094625 | 63 | 193 | 4.0 | 7.0 | 0.00 | 0.00 | 0.00 | 71 | 1027.9 |
| 20260505094122 | 63 | 205 | 6.0 | 6.0 | 0.00 | 0.00 | 0.00 | 71 | 1027.7 |
| 20260505093618 | 64 | 204 | 5.0 | 6.0 | 0.00 | 0.00 | 0.00 | 71 | 1027.8 |
| 20260505093115 | 64 | 209 | 5.0 | 8.0 | 0.00 | 0.00 | 0.00 | 70 | 1027.8 |
| 20260505092612 | 64 | 203 | 5.0 | 9.0 | 0.00 | 0.00 | 0.00 | 70 | 1027.9 |
| 20260505092111 | 65 | 200 | 6.0 | 11.0 | 0.00 | 0.00 | 0.00 | 70 | 1027.8 |
| 20260505091607 | 65 | 210 | 6.0 | 10.0 | 0.00 | 0.00 | 0.00 | 70 | 1027.9 |
| 20260505091106 | 66 | 201 | 5.0 | 10.0 | 0.00 | 0.00 | 0.00 | 69 | 1027.7 |
| 20260505090603 | 66 | 205 | 7.0 | 11.0 | 0.00 | 0.00 | 0.00 | 68 | 1027.7 |
| 20260505090101 | 66 | 207 | 6.0 | 11.0 | 0.00 | 0.00 | 0.00 | 67 | 1027.8 |
| 20260505085558 | 66 | 213 | 8.0 | 14.0 | 0.00 | 0.00 | 0.00 | 67 | 1027.9 |
| 20260505085057 | 66 | 213 | 11.0 | 14.0 | 0.00 | 0.00 | 0.00 | 66 | 1027.7 |
| 20260505084554 | 67 | 205 | 9.0 | 13.0 | 0.00 | 0.00 | 0.00 | 66 | 1027.7 |
| 20260505084052 | 67 | 214 | 12.0 | 14.0 | 0.00 | 0.00 | 0.00 | 65 | 1027.8 |
| 20260505083549 | 67 | 207 | 13.0 | 14.0 | 0.00 | 0.00 | 0.00 | 64 | 1027.5 |
| 20260505083046 | 67 | 205 | 10.0 | 13.0 | 0.00 | 0.00 | 0.00 | 64 | 1027.7 |
| 20260505082541 | 68 | 220 | 8.0 | 14.0 | 0.00 | 0.00 | 0.00 | 64 | 1027.6 |
| 20260505082039 | 67 | 220 | 10.0 | 15.0 | 0.00 | 0.00 | 0.00 | 64 | 1027.6 |
| 20260505081535 | 68 | 215 | 9.0 | 14.0 | 0.00 | 0.00 | 0.00 | 64 | 1027.5 |
| 20260505081032 | 68 | 203 | 14.0 | 15.0 | 0.00 | 0.00 | 0.00 | 63 | 1027.6 |
| 20260505080528 | 68 | 211 | 11.0 | 13.0 | 0.00 | 0.00 | 0.00 | 64 | 1027.6 |
| 20260505080025 | 68 | 216 | 12.0 | 14.0 | 0.00 | 0.00 | 0.00 | 63 | 1027.7 |
| 20260505075521 | 68 | 210 | 11.0 | 15.0 | 0.00 | 0.00 | 0.00 | 64 | 1027.7 |
| 20260505075018 | 68 | 207 | 10.0 | 14.0 | 0.00 | 0.00 | 0.00 | 64 | 1027.6 |
| 20260505074515 | 68 | 198 | 8.0 | 14.0 | 0.00 | 0.00 | 0.00 | 64 | 1027.6 |
| 20260505074012 | 68 | 205 | 12.0 | 15.0 | 0.00 | 0.00 | 0.00 | 63 | 1027.7 |
| 20260505073510 | 68 | 230 | 9.0 | 16.0 | 0.00 | 0.00 | 0.00 | 62 | 1027.8 |
| 20260505073008 | 69 | 213 | 13.0 | 16.0 | 0.00 | 0.00 | 0.00 | 61 | 1027.6 |
| 20260505072503 | 69 | 213 | 11.0 | 14.0 | 0.00 | 0.00 | 0.00 | 62 | 1027.7 |
| 20260505071959 | 68 | 208 | 11.0 | 16.0 | 0.00 | 0.00 | 0.00 | 61 | 1027.7 |
| 20260505071455 | 69 | 223 | 8.0 | 16.0 | 0.00 | 0.00 | 0.00 | 61 | 1027.7 |
| 20260505070953 | 69 | 210 | 9.0 | 16.0 | 0.00 | 0.00 | 0.00 | 60 | 1027.8 |
| 20260505070450 | 69 | 215 | 13.0 | 16.0 | 0.00 | 0.00 | 0.00 | 60 | 1027.6 |
| 20260505065946 | 69 | 208 | 13.0 | 15.0 | 0.00 | 0.00 | 0.00 | 61 | 1027.8 |
| 20260505065442 | 69 | 225 | 9.0 | 17.0 | 0.00 | 0.00 | 0.00 | 60 | 1027.8 |
| 20260505064939 | 69 | 225 | 8.0 | 17.0 | 0.00 | 0.00 | 0.00 | 60 | 1027.5 |
| 20260505064436 | 69 | 225 | 13.0 | 15.0 | 0.00 | 0.00 | 0.00 | 58 | 1027.4 |
| 20260505063934 | 69 | 223 | 14.0 | 14.0 | 0.00 | 0.00 | 0.00 | 59 | 1027.5 |
| 20260505063430 | 70 | 211 | 9.0 | 15.0 | 0.00 | 0.00 | 0.00 | 58 | 1027.5 |
| 20260505062927 | 70 | 219 | 11.0 | 12.0 | 0.00 | 0.00 | 0.00 | 59 | 1027.6 |
| 20260505062425 | 70 | 209 | 8.0 | 15.0 | 0.00 | 0.00 | 0.00 | 59 | 1027.4 |
| 20260505061921 | 70 | 234 | 9.0 | 15.0 | 0.00 | 0.00 | 0.00 | 58 | 1027.6 |
| 20260505061419 | 71 | 218 | 12.0 | 12.0 | 0.00 | 0.00 | 0.00 | 57 | 1027.4 |
| 20260505060916 | 70 | 203 | 6.0 | 10.0 | 0.00 | 0.00 | 0.00 | 58 | 1027.6 |
| 20260505060413 | 69 | 213 | 9.0 | 12.0 | 0.00 | 0.00 | 0.00 | 59 | 1027.6 |
| 20260505055910 | 69 | 226 | 9.0 | 12.0 | 0.00 | 0.00 | 0.00 | 59 | 1027.7 |
| 20260505055406 | 70 | 229 | 10.0 | 13.0 | 0.00 | 0.00 | 0.00 | 59 | 1027.6 |
| 20260505054902 | 69 | 226 | 5.0 | 11.0 | 0.00 | 0.00 | 0.00 | 60 | 1027.6 |
| 20260505054400 | 69 | 211 | 9.0 | 10.0 | 0.00 | 0.00 | 0.00 | 59 | 1027.4 |
| 20260505053858 | 69 | 225 | 7.0 | 11.0 | 0.00 | 0.00 | 0.00 | 59 | 1027.5 |
| 20260505053355 | 69 | 228 | 9.0 | 12.0 | 0.00 | 0.00 | 0.00 | 59 | 1027.5 |
| 20260505052852 | 69 | 210 | 8.0 | 11.0 | 0.00 | 0.00 | 0.00 | 59 | 1027.5 |
| 20260505052348 | 69 | 215 | 9.0 | 12.0 | 0.00 | 0.00 | 0.00 | 59 | 1027.6 |
| 20260505051846 | 69 | 234 | 8.0 | 11.0 | 0.00 | 0.00 | 0.00 | 59 | 1027.7 |
| 20260505051343 | 69 | 216 | 13.0 | 14.0 | 0.00 | 0.00 | 0.00 | 59 | 1027.5 |
| 20260505050841 | 69 | 223 | 7.0 | 11.0 | 0.00 | 0.00 | 0.00 | 59 | 1027.7 |
| 20260505050339 | 69 | 239 | 6.0 | 12.0 | 0.00 | 0.00 | 0.00 | 59 | 1027.8 |
| 20260505041306 | 70 | 7 | 0.0 | 5.0 | 0.00 | 0.00 | 0.00 | 51 | 1028.4 |
| 20260505040803 | 71 | 328 | 5.0 | 6.0 | 0.00 | 0.00 | 0.00 | 49 | 1028.5 |
| 20260505040301 | 72 | 344 | 4.0 | 7.0 | 0.00 | 0.00 | 0.00 | 48 | 1028.6 |
| 20260505035757 | 70 | 149 | 1.0 | 4.0 | 0.00 | 0.00 | 0.00 | 51 | 1028.6 |
| 20260505035253 | 71 | 45 | 6.0 | 8.0 | 0.00 | 0.00 | 0.00 | 49 | 1028.7 |
| 20260505034751 | 71 | 79 | 2.0 | 5.0 | 0.00 | 0.00 | 0.00 | 49 | 1028.9 |
| 20260505034247 | 71 | 64 | 6.0 | 6.0 | 0.00 | 0.00 | 0.00 | 49 | 1029.0 |
| 20260505033744 | 70 | 353 | 3.0 | 4.0 | 0.00 | 0.00 | 0.00 | 52 | 1028.9 |
| 20260505033242 | 70 | 352 | 4.0 | 5.0 | 0.00 | 0.00 | 0.00 | 52 | 1029.1 |
| 20260505032739 | 71 | 0 | 3.0 | 4.0 | 0.00 | 0.00 | 0.00 | 51 | 1029.0 |
| 20260505032235 | 70 | 344 | 4.0 | 6.0 | 0.00 | 0.00 | 0.00 | 52 | 1029.1 |
| 20260505031733 | 69 | 15 | 5.0 | 6.0 | 0.00 | 0.00 | 0.00 | 53 | 1029.2 |
| 20260505031229 | 69 | 49 | 7.0 | 9.0 | 0.00 | 0.00 | 0.00 | 52 | 1029.2 |
| 20260505030726 | 69 | 337 | 3.0 | 5.0 | 0.00 | 0.00 | 0.00 | 52 | 1029.2 |
| 20260505030222 | 69 | 342 | 7.0 | 8.0 | 0.00 | 0.00 | 0.00 | 53 | 1029.4 |
| 20260505025718 | 68 | 40 | 3.0 | 8.0 | 0.00 | 0.00 | 0.00 | 53 | 1029.2 |
| 20260505025216 | 69 | 56 | 4.0 | 9.0 | 0.00 | 0.00 | 0.00 | 54 | 1029.3 |
| 20260505024714 | 69 | 44 | 3.0 | 5.0 | 0.00 | 0.00 | 0.00 | 54 | 1029.2 |
| 20260505024211 | 68 | 26 | 6.0 | 8.0 | 0.00 | 0.00 | 0.00 | 55 | 1029.3 |